Orbital Elements at Epoch 2459200.5 (2020-Dec-17.0) TDB
Reference: JPL 1 (heliocentric ecliptic J2000)
Element | Value | Uncertainty (1-sigma) | Units |
e | .5061812571073183 | 0.00026469 | |
a | 1.836901552479068 | 0.00093307 | au |
q | .9070964154628287 | 2.5482e-05 | au |
i | 16.30431854677461 | 0.0058838 | deg |
node | 137.5929386290654 | 0.00025081 | deg |
peri | 320.3328796421211 | 0.0022359 | deg |
M | 65.07554203663136 | 0.32628 | deg |
tp | 2459036.122435250557 (2020-Jul-05.62243525) | 0.69892 | TDB |
period | 909.3419963600019 2.49 | 0.69286 0.001897 | d yr |
n | .3958906565857964 | 0.00030164 | deg/d |
Q | 2.766706689495307 | 0.0014054 | au |
|
| | Orbit Determination Parameters
Additional Information
|